Home > Time Zones > World Clock > Weather > Mali > Bamako > Past weeks

Flag for Mali Weather past 2 weeks in Bamako, Mali

Now
82 °F

Thunderstorms. Scattered clouds.


Feels Like: 87 °F
Forecast: N/A
Wind: 13 mph from South

Location: Bamako / Senou

Current Time: Aug 21, 2014 at 7:07:47 PM

Latest Report: Aug 21, 2014 at 6:30 PM


Visibility: N/A

Pressure: 29.92 "Hg

Humidity: 70%

Dew point: 72 °F

Location of BamakoLocation

Historic Weather in Bamako — Graph

°F

Bamako temperature yesterday

Maximum temperature yesterday: 84 °F (at 3:30 PM)
Minimum temperature yesterday: 68 °F (at 8:00 AM)
Average temperature yesterday: 77 °F

Past Weeks' High & Low Weather Summary

 TemperatureHumidityPressure
High91 °F (Aug 21, 1:30 PM)100% (Aug 6, 10:30 PM)30.07 "Hg (Aug 6, 10:30 PM)
Low68 °F (Aug 20, 8:00 AM)46% (Aug 21, 1:30 PM)29.86 "Hg (Aug 8, 3:30 PM)
Average79 °F85%29.96 "Hg
* Reported Aug 6 6:00 PM — Aug 21 6:00 PM, Bamako, Weather by CustomWeather, © 2014

Note: Actual official high and low records may vary slightly from our data, if they occured in-between our weather recording intervals... More about our weather records

Advertising

Bamako weather history for previous 24 hours

 ConditionsComfort  
Time TempWeatherWind HumidityBarometerVisibility
6:00 PM
Aug 21
86 °FThunderstorms. Scattered clouds.3 mph62%29.89 "HgN/A
5:30 PM88 °FThunderstorms. Scattered clouds.7 mph59%29.89 "HgN/A
5:00 PM90 °FThunderstorms. Scattered clouds.3 mph52%29.89 "HgN/A
4:30 PM90 °FThunderstorms. Scattered clouds.3 mph52%29.89 "HgN/A
4:00 PM88 °FThunderstorms. Partly sunny.6 mph55%29.92 "HgN/A
3:30 PM90 °FThunderstorms. Partly sunny.3 mph52%29.92 "HgN/A
3:00 PM90 °FThunderstorms. Partly sunny.5 mph52%29.92 "HgN/A
2:30 PM90 °FThunderstorms. Partly sunny.1 mph52%29.92 "HgN/A
2:00 PM90 °FPartly sunny.3 mph52%29.95 "HgN/A
1:30 PM91 °FPartly sunny.3 mph46%29.95 "HgN/A
1:00 PM90 °FPartly sunny.2 mph52%29.98 "HgN/A
12:30 PM90 °FScattered clouds.3 mph52%30.01 "HgN/A
12:00 PM88 °FScattered clouds.2 mph59%30.01 "HgN/A
11:30 AM86 °FScattered clouds.3 mph62%30.01 "HgN/A
11:00 AM86 °FScattered clouds.3 mph62%30.04 "HgN/A
10:30 AM84 °FScattered clouds.3 mph66%30.04 "HgN/A
10:00 AM82 °FBroken clouds.5 mph79%30.04 "HgN/A
9:30 AM82 °FBroken clouds.3 mph74%30.04 "HgN/A
9:00 AM81 °FBroken clouds.1 mph79%30.04 "HgN/A
8:30 AM79 °FBroken clouds.2 mph84%30.04 "HgN/A
8:00 AM79 °FBroken clouds.1 mph89%30.04 "HgN/A
7:30 AM77 °FBroken clouds.No wind94%30.01 "HgN/A
7:00 AM72 °FBroken clouds.2 mph100%30.01 "HgN/A
6:30 AM72 °FBroken clouds.2 mph100%29.98 "HgN/A
6:00 AM72 °FPassing clouds.1 mph100%29.98 "HgN/A
5:00 AM72 °FPassing clouds.No wind100%29.98 "HgN/A
4:30 AM73 °FPassing clouds.3 mph100%29.98 "HgN/A
4:00 AM73 °FPassing clouds.2 mph100%29.95 "HgN/A
3:30 AM73 °FPassing clouds.1 mph100%29.95 "HgN/A
3:00 AM73 °FPassing clouds.1 mph100%29.95 "HgN/A
2:30 AM73 °FPassing clouds.No wind100%29.95 "HgN/A
2:00 AM73 °FPassing clouds.No wind100%29.95 "HgN/A
1:30 AM75 °FPartly cloudy.No wind94%29.95 "HgN/A
1:00 AM75 °FThunderstorms. Partly cloudy.5 mph94%29.95 "HgN/A
12:30 AM73 °FThunderstorms. Partly cloudy.5 mph100%29.95 "HgN/A
11:30 PM
Aug 20
75 °FThunderstorms. Partly cloudy.No wind100%29.98 "HgN/A
11:00 PM73 °FThunderstorms. Partly cloudy.2 mph100%29.98 "HgN/A
10:30 PM75 °FThunderstorms. Partly cloudy.6 mph94%30.01 "HgN/A
10:00 PM75 °FThunderstorms. Partly cloudy.7 mph94%30.01 "HgN/A
9:30 PM75 °FThunderstorms. Partly cloudy.6 mph94%30.01 "HgN/A
8:30 PM75 °FThunderstorms. Passing clouds.3 mph94%29.98 "HgN/A
8:00 PM75 °FThunderstorms. Passing clouds.6 mph89%29.98 "HgN/A
7:30 PM77 °FThunderstorms. Passing clouds.6 mph83%29.98 "HgN/A
7:00 PM79 °FPassing clouds.9 mph84%29.95 "HgN/A
Weather by CustomWeather, © 2014

See weather overviewHow to use our weather pages